Weather in Trujillo

Peru     8°06′46″S   79°02′04″W
temp.,
°C
wind,
m/s
gust,
m/s
humid.,
%
clouds,
%
prec.,
mm/h
press.,
hPa
HPBL,
m
20 january, thu
thu2001:00+21s11720 0.0 1012132
04:00+20sse11755 0.0 101079
07:00+20sse11763 0.0 1012161
10:00+25ssw32597 0.0 1012792
13:00+26ssw645526 0.0 10101033
16:00+24ssw546235 0.0 1009791
19:00+22s3370100 0.0 1010495
22:00+21s227583 0.0 1013354
21 january, fri
fri2101:00+21ssw2178100 0.1 1012241
04:00+20ssw118298 0.1 1011217
07:00+21sw118152 0.1 1012205
10:00+25ssw326169 0.0 1012873
13:00+27ssw645572 0.0 10101064
16:00+24ssw536377 0.0 1009810
19:00+22ssw337242 0.0 1011428
22:00+21s22765 0.0 1012254
22 january, sat
sat2201:00+21ssw11795 0.0 1012198
04:00+21s1180100 0.0 1011127
07:00+21wsw117897 0.0 1012156
10:00+26sw325876 0.0 1012932
13:00+26sw535756 0.0 10111001
16:00+24ssw436655 0.0 1010769
19:00+22ssw327548 0.0 1011367
22:00+21ssw217849 0.0 1013216
23 january, sun
sun2301:00+20ssw228213 0.0 1012151
04:00+20sse118499 0.0 1011113
07:00+20sw118342 0.0 1012152
10:00+25sw316014 0.0 1012823
13:00+26sw535855 0.0 1011968
16:00+24ssw436444 0.0 1010750
19:00+22ssw327722 0.0 1011320
22:00+21s328165 0.0 1012246
24 january, mon
mon2401:00+20s118355 0.0 1011171
04:00+20s1184100 0.0 1010124
07:00+21se017895 0.0 1010128
10:00+24sw426494 0.0 1011811
13:00+26ssw435752 0.0 1010999
16:00+26ssw535631 0.1 1008993
19:00+21s327554 0.1 1010329
22:00+21s227699 0.0 1012251